Location: Krakow
(50.0830°N, 19.9170°E)
Time: 05:17:04
(UTC+01:00)

SR - Pass Details

Date: 16 February 2023
Orbit: 582 x 867 km, 66.7° (Epoch: 20 March)

Event Time Altitude Azimuth Distance (km) Brightness Sun altitude
Rises 16:42:00 0° 323° (NW) 2,903 ? 1.8°
Reaches altitude 10° 16:45:44 10° 355° (N) 1,951 ? 1.3°
Maximum altitude 16:47:28 12° 19° (NNE) 1,800 ? 1.0°
Drops below altitude 10° 16:49:11 10° 43° (NE) 1,922 ? 0.8°
Sets 16:52:47 0° 75° (ENE) 2,808 ? 0.2°
Enters shadow 16:52:48 - 75° (ENE) 2,812 ? 0.2°
